Vertical_Velocity
3 3 2 -1 -1 -0 -3 1 0 0 -1 -4 -0 3 -6 -4 -3 -5 -3 -1 -1 -3 -3 -1 -0 -2 -0 -2 0 2 -2 -3 -2 -4 -3 -1 -2 2 4 2 -9 -5 -0 7 -5 -5 -8
-12 -1 16 6 -0 2 6 6 -1 -3 -0 1 -3 -1 -0 -2 -5 1 -4 -4 -4 0 -5 -4 -3 -1 -5 -1 -7 -4 -1 -1 -3 -1 -0 -3 -10 -5 1 7 -1 -9 -10 -7 -2 -1 -4
2 -2 2 4 -11 -1 3 8 -4 1 -6 0 -2 2 -2 -1 -5 -1 -1 -0 -4 -5 1 -4 4 -7 1 -4 -5 -5 -2 -1 0 -1 2 -3 -2 -3 -4 -9 10 3 -7 -0 -4 -9 -3
-1 -5 3 1 -8 -5 -7 -7 -0 -3 -1 -8 4 -2 1 -6 -2 -3 -2 -1 -4 -0 -0 -3 -2 -0 -5 -6 -2 -5 -4 -6 1 -2 4 3 -1 -4 -2 -3 -9 -7 2 3 -6 21 -1
-1 2 -0 -8 -1 4 -8 3 0 -4 2 3 -3 -3 -4 -3 -3 -3 1 -4 -4 -4 3 -6 1 -5 1 -6 -5 -3 -6 -6 -7 1 0 -1 -1 1 -0 -3 -3 -0 -10 1 22 -1 13
4 1 -2 -0 -0 0 9 -1 -4 -3 -1 2 -5 -5 -1 -2 -1 -5 -2 -2 -1 -2 -7 -2 1 -2 -0 5 -5 -1 -1 2 -5 -9 1 1 -8 -5 -1 3 -8 -1 20 23 11 23 1
7 8 -2 12 16 -3 -3 1 1 3 5 -10 2 -3 -3 -3 -2 -3 -6 -5 2 -11 -3 1 9 6 -5 0 -2 0 -5 -1 6 -1 -4 5 -0 -5 4 14 21 -7 -5 -3 -9 -18 -4
-7 -1 -0 1 -1 -9 10 4 1 -4 3 -6 2 -4 -1 -2 -3 -0 -5 -1 -13 7 -12 -6 -2 -11 6 -2 -9 4 -6 -4 4 -2 1 -6 -9 -8 14 1 1 -2 -1 -8 -11 -7 7
-0 -5 2 -4 -2 4 -6 -12 -1 -3 -7 -7 -10 -1 -6 -0 5 -4 7 -9 8 -0 2 -16 -5 3 -2 -4 -2 4 -0 3 -0 7 -1 1 -4 -5 -7 -2 -0 0 5 -0 6 -3 -5
-3 -0 4 -3 1 -0 1 -0 -2 -4 -4 -1 -2 -8 8 2 -0 1 -1 -3 -2 5 -5 -3 -0 -8 -0 3 -2 -6 8 2 -1 -4 2 -4 -0 16 -2 -4 4 3 7 9 -3 2 -3
-0 -1 -1 1 -5 1 0 -3 1 -2 2 -6 4 4 3 5 7 -4 -7 4 7 -3 3 7 -4 -2 -7 -2 -5 -3 -3 0 1 6 -3 -10 10 -8 -1 -5 10 -5 -6 2 -5 -2 2
3 4 -1 -2 1 -1 -1 0 0 -1 -1 -2 1 2 -0 1 5 -6 3 2 4 -1 -11 -3 -4 -1 -3 -2 -4 -5 -2 1 -0 -2 -2 -8 2 9 -4 -2 -3 -4 0 -3 -2 -0 11
1 -2 3 -1 -3 4 -3 3 -2 2 3 -1 -1 4 6 4 -5 10 -3 -0 5 0 -3 9 8 1 2 -2 -1 -2 -3 -4 -4 -1 -1 -3 -14 -12 1 -0 -5 4 -1 -4 1 9 -10
4 0 -2 -0 4 1 -2 -2 1 -1 2 -0 3 2 1 -3 6 -2 11 3 5 7 -9 -1 -11 -0 8 11 1 -1 0 -2 2 -6 -4 2 -22 24 28 4 -1 14 25 3 2 2 -6
-2 4 -3 3 1 -1 1 0 -0 -1 2 0 0 0 2 -1 9 4 -1 1 -10 -4 5 -4 -8 -2 -6 8 -8 3 3 -0 8 38 10 3 -8 28 -11 -12 7 -14 9 -7 12 -5 14
0 -2 -1 2 6 3 1 1 -1 0 4 2 3 0 1 3 4 5 1 -8 -4 5 0 -3 1 0 -2 1 -4 1 -1 13 4 10 9 -14 -1 -10 -6 22 -2 -3 -4 -9 -5 3 -2
2 -0 2 -2 5 4 3 -1 2 -1 4 1 9 -4 -1 6 8 2 -14 -13 -10 7 -4 -3 -5 6 -15 -2 13 -5 4 1 -5 -9 -14 6 17 -21 7 -0 -3 4 7 -5 14 17 6
2 2 -0 1 7 4 1 2 -0 -0 3 1 1 4 5 6 -1 5 -2 -9 7 20 -7 2 4 -2 -2 9 -5 1 -7 -2 5 -4 -5 24 7 -2 -12 1 14 11 1 3 26 -19 -1
-3 0 0 0 3 3 4 -0 1 2 -4 1 2 -1 2 8 -7 -3 -0 -13 16 -6 6 -2 -2 -2 -2 -2 -2 -8 -8 -10 8 -4 9 -0 -4 1 -13 3 -3 6 1 17 12 14 -5
-1 -0 1 2 7 8 -9 44 5 -1 3 1 -0 -3 6 5 -1 17 4 -11 -1 -15 4 7 -2 9 -2 1 -2 -5 -7 -9 -0 -1 -6 -3 -5 3 3 -3 6 -1 -5 5 22 9 -4
0 -1 -1 -3 -2 -3 8 32 -0 1 7 1 -3 -8 -5 -8 -13 -6 3 5 -2 12 -18 0 3 -0 -2 -2 -4 -2 -2 -9 6 -7 -6 1 -3 -5 -2 -0 -0 -2 -5 -0 -1 4 21
-1 3 -2 0 -3 0 33 -5 27 6 19 -0 -5 -6 5 2 -1 8 -0 -9 -1 10 2 -4 3 5 1 2 -5 -9 4 -4 3 10 3 -9 -11 -2 -10 -7 -5 -8 -6 -5 -4 -13 -9
-1 -3 -1 -2 -0 1 -0 54 7 5 9 -8 6 3 13 -3 10 -3 -11 -12 9 -11 4 -5 6 1 6 2 13 12 -2 -6 3 -7 -9 5 3 3 -16 3 11 9 -3 -2 -7 -1 4
-4 -2 -2 -1 2 -1 5 23 30 16 -7 10 -1 1 -8 -5 10 -3 -9 5 -5 -10 -4 -2 -1 0 -8 3 -8 -8 -4 -10 -6 -13 -1 -1 0 11 -8 2 9 -35 -4 -4 -6 -1 21
-2 -2 -2 -2 1 2 -2 -3 22 19 7 -8 3 -2 -0 -2 -10 7 11 -8 10 10 -6 -0 5 5 21 -5 -6 -8 -9 1 -19 -7 -7 8 7 7 5 1 -18 -15 -21 23 -3 -19 -25
-4 -4 -3 -1 0 4 3 29 35 25 12 -5 1 6 5 5 -2 2 4 -14 0 -1 4 -2 1 -8 2 0 -2 -3 -4 -1 1 8 -6 12 1 15 3 7 1 -7 -19 -6 7 2 -2
-2 -2 -2 -2 -2 1 5 9 5 27 1 -5 6 6 5 3 -4 -9 -2 15 -3 1 -8 -4 -2 -4 -0 -0 0 -1 -10 -5 -3 -1 29 -4 7 -5 2 0 -17 -16 -5 -13 14 1 -2
-2 -2 -2 -4 2 1 11 13 18 11 -4 -5 7 4 0 -3 5 -4 -5 -7 -8 1 6 13 9 9 2 20 2 -8 -5 -5 14 -5 12 3 7 -2 3 5 -10 -0 15 3 -4 2 -3
-2 -2 -1 -1 -6 -8 1 18 23 3 -3 3 2 1 15 7 -1 -6 -8 -12 -9 5 -7 7 4 3 6 -2 -2 5 9 1 6 -3 9 7 -28 -9 1 4 -2 11 -0 -3 6 1 -5
Height
3140 3141 3141 3143 3144 3145 3146 3147 3147 3147 3149 3149 3148 3148 3148 3147 3146 3144 3143 3142 3141 3139 3138 3137 3133 3132 3132 3131 3131 3130 3130 3130 3130 3129 3130 3129 3129 3130 3130 3130 3130 3129 3130 3129 3127 3126 3126
3132 3134 3134 3135 3138 3138 3139 3140 3142 3143 3143 3143 3143 3142 3142 3141 3141 3139 3137 3137 3135 3135 3134 3133 3131 3128 3129 3129 3127 3127 3127 3127 3127 3127 3126 3126 3125 3125 3125 3126 3125 3124 3123 3123 3124 3125 3124
3126 3127 3128 3128 3129 3131 3133 3133 3135 3136 3137 3137 3137 3136 3136 3136 3135 3133 3132 3131 3131 3130 3130 3129 3127 3125 3125 3126 3124 3124 3124 3124 3124 3124 3124 3123 3124 3124 3123 3123 3123 3119 3118 3118 3118 3120 3121
3119 3120 3120 3123 3125 3126 3127 3128 3128 3129 3130 3131 3130 3130 3129 3129 3129 3128 3127 3126 3126 3126 3125 3124 3122 3121 3119 3121 3121 3121 3121 3121 3120 3120 3121 3120 3119 3120 3120 3120 3119 3118 3117 3114 3113 3113 3116
3110 3113 3114 3116 3118 3119 3120 3120 3122 3123 3123 3123 3124 3124 3124 3124 3124 3124 3122 3121 3121 3121 3120 3119 3119 3117 3116 3115 3116 3115 3116 3117 3118 3118 3117 3117 3117 3117 3117 3118 3117 3116 3112 3111 3111 3110 3111
3103 3105 3106 3107 3109 3110 3111 3113 3116 3116 3116 3117 3117 3118 3118 3119 3119 3118 3117 3117 3116 3115 3115 3115 3114 3116 3113 3112 3112 3113 3113 3113 3113 3115 3116 3114 3114 3114 3116 3116 3113 3111 3109 3107 3107 3112 3108
3094 3096 3099 3101 3100 3101 3103 3106 3107 3110 3110 3111 3112 3112 3113 3113 3113 3114 3115 3114 3114 3110 3110 3111 3112 3110 3108 3108 3109 3110 3109 3110 3110 3109 3112 3113 3113 3113 3113 3113 3109 3108 3107 3106 3106 3105 3105
3086 3088 3091 3093 3093 3094 3096 3097 3098 3101 3103 3106 3106 3107 3108 3108 3108 3108 3109 3110 3108 3108 3102 3104 3104 3102 3104 3103 3104 3105 3104 3106 3107 3104 3108 3110 3109 3111 3111 3108 3105 3104 3104 3104 3102 3103 3104
3076 3078 3081 3083 3085 3086 3089 3090 3092 3093 3092 3096 3101 3102 3103 3102 3102 3103 3102 3104 3104 3102 3098 3095 3096 3095 3098 3098 3098 3101 3100 3100 3102 3103 3105 3103 3104 3102 3108 3107 3104 3104 3102 3101 3100 3099 3096
3066 3067 3071 3073 3075 3077 3079 3081 3082 3085 3087 3087 3089 3094 3096 3096 3098 3098 3097 3099 3100 3100 3095 3092 3086 3088 3090 3091 3091 3094 3095 3098 3096 3098 3101 3099 3101 3100 3098 3104 3105 3101 3101 3097 3096 3096 3093
3056 3059 3061 3064 3066 3069 3070 3073 3075 3077 3080 3082 3083 3085 3091 3090 3090 3092 3092 3095 3096 3098 3097 3090 3082 3083 3084 3088 3089 3087 3089 3091 3091 3095 3097 3095 3096 3096 3093 3098 3101 3100 3097 3096 3094 3093 3090
3047 3050 3052 3054 3057 3060 3062 3063 3067 3069 3072 3073 3077 3080 3083 3084 3085 3085 3090 3092 3094 3099 3087 3084 3080 3079 3082 3083 3086 3085 3087 3088 3089 3089 3090 3091 3092 3094 3092 3092 3093 3096 3095 3094 3091 3090 3084
3038 3042 3044 3047 3050 3052 3055 3056 3059 3062 3065 3066 3069 3072 3075 3078 3078 3083 3086 3090 3095 3087 3082 3084 3080 3079 3080 3081 3082 3084 3086 3085 3088 3090 3088 3086 3087 3088 3088 3089 3090 3092 3093 3091 3085 3083 3077
3029 3032 3037 3041 3043 3045 3048 3050 3052 3054 3057 3058 3062 3067 3068 3071 3074 3077 3081 3087 3085 3079 3079 3078 3079 3083 3082 3082 3083 3083 3085 3085 3084 3086 3087 3085 3085 3086 3084 3084 3087 3087 3087 3086 3080 3077 3074
3018 3023 3028 3032 3036 3038 3041 3044 3046 3048 3051 3052 3055 3059 3062 3065 3067 3072 3077 3078 3073 3076 3076 3075 3077 3079 3081 3083 3083 3082 3082 3084 3083 3083 3085 3082 3080 3082 3081 3082 3085 3083 3082 3081 3078 3077 3072
3006 3012 3017 3023 3028 3031 3034 3037 3040 3042 3045 3047 3050 3053 3055 3058 3062 3065 3070 3066 3069 3071 3069 3072 3074 3074 3077 3078 3079 3080 3081 3080 3079 3080 3081 3080 3078 3079 3079 3080 3080 3079 3080 3078 3076 3074 3069
2996 3001 3007 3013 3019 3022 3026 3030 3033 3036 3039 3042 3044 3045 3048 3052 3057 3058 3058 3061 3065 3067 3065 3070 3071 3072 3073 3075 3076 3076 3077 3079 3078 3078 3079 3079 3077 3076 3076 3075 3075 3076 3073 3073 3072 3071 3068
2984 2989 2996 3002 3008 3013 3018 3023 3027 3030 3034 3036 3040 3043 3045 3046 3052 3050 3051 3057 3063 3064 3064 3064 3066 3068 3070 3072 3073 3074 3073 3076 3076 3075 3075 3077 3073 3072 3072 3071 3070 3071 3069 3069 3067 3064 3061
2972 2978 2985 2992 2999 3005 3010 3014 3019 3023 3026 3033 3034 3038 3041 3043 3042 3044 3050 3054 3059 3059 3061 3062 3063 3064 3066 3067 3069 3068 3069 3071 3072 3071 3072 3073 3071 3068 3065 3067 3065 3064 3065 3066 3063 3059 3052
2961 2967 2974 2981 2988 2995 3002 3003 3009 3015 3021 3027 3031 3033 3035 3034 3038 3044 3047 3051 3053 3053 3057 3059 3059 3060 3061 3062 3064 3063 3064 3066 3067 3067 3067 3069 3068 3067 3063 3064 3064 3061 3060 3060 3060 3056 3051
2948 2956 2964 2972 2978 2985 2991 2994 3001 3007 3013 3019 3022 3024 3026 3027 3031 3037 3041 3046 3048 3050 3051 3054 3055 3055 3056 3057 3059 3060 3061 3063 3064 3064 3064 3066 3062 3064 3060 3061 3060 3057 3054 3053 3052 3049 3049
2938 2944 2952 2960 2968 2975 2978 2984 2991 2999 3005 3009 3014 3020 3024 3027 3029 3033 3035 3037 3043 3047 3049 3049 3050 3052 3053 3055 3055 3056 3058 3058 3059 3060 3060 3061 3055 3059 3052 3055 3053 3048 3047 3046 3043 3041 3040
2928 2933 2940 2949 2956 2964 2971 2975 2984 2992 2995 3000 3009 3016 3019 3022 3023 3027 3028 3035 3040 3043 3045 3046 3047 3049 3050 3053 3053 3052 3050 3051 3052 3053 3054 3055 3054 3054 3043 3049 3045 3038 3038 3037 3035 3035 3035
2918 2923 2929 2937 2946 2953 2960 2965 2973 2982 2986 2997 3004 3010 3015 3017 3021 3023 3028 3032 3035 3037 3041 3042 3043 3044 3047 3046 3044 3045 3046 3046 3046 3045 3046 3046 3048 3049 3042 3045 3037 3029 3030 3030 3028 3028 3029
2908 2913 2918 2925 2935 2943 2952 2957 2964 2975 2983 2991 2998 3006 3010 3012 3018 3022 3024 3027 3032 3033 3034 3036 3040 3043 3044 3041 3042 3042 3042 3040 3036 3035 3035 3037 3042 3042 3040 3037 3028 3024 3025 3026 3025 3022 3023
2898 2904 2909 2914 2924 2935 2944 2952 2957 2965 2977 2987 2993 3001 3005 3009 3012 3018 3021 3024 3027 3029 3031 3032 3035 3036 3037 3037 3039 3039 3037 3034 3030 3028 3028 3031 3034 3038 3036 3032 3024 3020 3020 3020 3022 3021 3019
2888 2894 2899 2906 2915 2926 2935 2944 2951 2961 2971 2981 2989 2995 3000 3005 3008 3012 3015 3019 3021 3023 3026 3028 3028 3029 3032 3032 3034 3034 3031 3031 3027 3025 3028 3024 3027 3026 3029 3029 3021 3019 3016 3015 3020 3021 3016
2879 2885 2890 2898 2907 2919 2929 2932 2940 2956 2967 2976 2985 2990 2996 3000 3004 3007 3010 3013 3017 3018 3021 3024 3025 3025 3026 3027 3028 3028 3025 3023 3021 3020 3020 3019 3020 3022 3024 3025 3018 3016 3015 3016 3015 3014 3014
2870 2876 2883 2892 2903 2914 2922 2932 2942 2954 2964 2973 2981 2986 2992 2996 2999 3001 3004 3007 3010 3013 3015 3017 3019 3020 3022 3023 3023 3022 3020 3018 3017 3014 3015 3015 3013 3016 3016 3013 3012 3011 3011 3012 3012 3012 3012